Nenana, AK

12:02 PM AKDT on August 21, 2017 (GMT -0800)
Nenana Municipal

Weather History for PANN - October, 2013

Change the Weather History Date:

Monday, October 14, 2013

  Actual Average Record
Temperature  
Mean Temperature 44 °F -  
Max Temperature 53 °F 34 °F 64 °F (1969)
Min Temperature 36 °F 20 °F 0 °F (1994)
Degree Days  
Heating Degree Days 20    
Moisture  
Dew Point 36 °F    
Average Humidity 85    
Maximum Humidity 100    
Minimum Humidity 59    
Precipitation  
Precipitation 0.28 in - - ()
Sea Level Pressure  
Sea Level Pressure 29.82 in    
Wind  
Wind Speed 4 mph (SE)    
Max Wind Speed 15 mph    
Max Gust Speed -    
Visibility 10 miles    
Events Rain    
Averages and records for this station are not official NWS values.
T = Trace of Precipitation, MM = Missing Value Source: NWS Daily Summary

Daily Weather History Graph

Daily Weather History Graph

Search for Another Location

Airport or City:

Trip Planner

Search our weather history database for the weather conditions in past years. The results will help you decide how hot, cold, wet, or windy it might be!

Date:

Astronomy

Oct. 14, 2013 Rise Set
Actual Time 8:46 AM AKDT 6:36 PM AKDT
Civil Twilight 7:56 AM AKDT 7:26 PM AKDT
Nautical Twilight 7:00 AM AKDT 8:21 PM AKDT
Astronomical Twilight 6:03 AM AKDT 9:18 PM AKDT
Moon 5:26 PM AKDT (10/14) 2:44 AM AKDT (10/14)
Length of Visible Light 11h 29m
Length of Day
9h 50m
Waxing Gibbous, 80% of the Moon is Illuminated
Oct 14
Waxing Gibbous
Oct 18
Full
Oct 26
Last Quarter
Nov 3
New
Nov 9
First Quarter

Hourly Weather History & Observations

Time (AKDT) Temp. Windchill Dew Point Humidity Pressure Visibility Wind Dir Wind Speed Gust Speed Precip Events Conditions
12:53 AM 41.0 °F 35.8 °F 37.0 °F 86% 29.60 in 10.0 mi SSW 8.1 mph - N/A   Overcast
1:53 AM 39.9 °F - 36.0 °F 86% 29.63 in 10.0 mi Calm Calm - N/A   Clear
2:53 AM 34.0 °F - 32.0 °F 92% 29.65 in 10.0 mi Calm Calm - N/A   Clear
3:53 AM 33.1 °F - 30.9 °F 92% 29.67 in 10.0 mi Calm Calm - N/A   Mostly Cloudy
4:53 AM 30.9 °F - 28.9 °F 92% 29.68 in 10.0 mi Calm Calm - N/A   Clear
5:53 AM 33.1 °F 30.0 °F 30.9 °F 92% 29.68 in 10.0 mi ENE 3.5 mph - N/A   Mostly Cloudy
6:53 AM 34.0 °F - 30.9 °F 89% 29.69 in 10.0 mi Calm Calm - N/A   Scattered Clouds
7:53 AM 35.1 °F - 32.0 °F 89% 29.69 in 10.0 mi Calm Calm - N/A   Overcast
8:53 AM 34.0 °F 29.8 °F 32.0 °F 92% 29.70 in 10.0 mi East 4.6 mph - N/A   Overcast
9:53 AM 36.0 °F - 33.1 °F 89% 29.71 in 10.0 mi Calm Calm - N/A   Overcast
10:53 AM 36.0 °F 30.3 °F 34.0 °F 93% 29.73 in 10.0 mi East 6.9 mph - N/A   Overcast
11:53 AM 39.0 °F - 35.1 °F 86% 29.76 in 10.0 mi Calm Calm - N/A   Overcast
12:53 PM 39.9 °F - 35.1 °F 83% 29.78 in 10.0 mi Calm Calm - N/A   Overcast
1:53 PM 44.1 °F - 37.0 °F 76% 29.78 in 10.0 mi Calm Calm - N/A   Partly Cloudy
2:53 PM 48.0 °F - 36.0 °F 63% 29.79 in 10.0 mi SW 5.8 mph - N/A   Clear
3:53 PM 48.9 °F - 35.1 °F 59% 29.81 in 10.0 mi Variable 4.6 mph - N/A   Overcast
4:53 PM 48.0 °F - 35.1 °F 61% 29.82 in 10.0 mi West 4.6 mph - N/A   Overcast
5:53 PM 46.0 °F 43.9 °F 35.1 °F 66% 29.83 in 10.0 mi WNW 4.6 mph - N/A   Overcast
6:53 PM 43.0 °F - 34.0 °F 71% 29.84 in 10.0 mi Calm Calm - N/A   Overcast
7:53 PM 39.0 °F - 34.0 °F 82% 29.85 in 10.0 mi Calm Calm - N/A   Overcast
8:53 PM 37.9 °F - 34.0 °F 86% 29.86 in 10.0 mi Calm Calm - N/A   Overcast
9:53 PM 37.0 °F - 34.0 °F 89% 29.87 in 10.0 mi Calm Calm - N/A   Overcast
10:53 PM 37.9 °F 35.5 °F 34.0 °F 86% 29.89 in 10.0 mi East 3.5 mph - N/A   Overcast
11:53 PM 37.9 °F - 34.0 °F 86% 29.91 in 10.0 mi Calm Calm - N/A   Overcast